Location: Dal�� Lhota
(48.7500°N, 14.0167°E)
Time: 18:32:43
(UTC+00:00)

Explorer 7 - Pass Details

Date: 10 August 2021
Orbit: 484 x 676 km, 50.3° (Epoch: 20 September)

Event Time Altitude Azimuth Distance (km) Brightness Sun altitude
Rises 00:53:47 0° 225° (SW) 2,545 - -21.7°
Reaches altitude 10° 00:56:03 10° 217° (SW) 1,661 - -21.5°
Maximum altitude 00:59:31 37° 149° (SSE) 761 - -21.2°
Exits shadow 01:00:12 34° 122° (ESE) 818 7.6 -21.2°
Drops below altitude 10° 01:03:01 10° 81° (E) 1,680 9.8 -20.9°
Sets 01:05:19 0° 73° (ENE) 2,580 11.0 -20.7°
